This is the latest recevied weather packets stored in our database for station/object IW3HBX-3. If no packets are shown the sender has not sent any weather packets the latest 10 day(s).
| Time | Temp. | Humidity | Pressure | Rain* | Wind** | Luminosity | Snow |
|---|---|---|---|---|---|---|---|
| 1777564237 | 17.78° C | 35% | 1024.3 hPa | 0 mm | - | 253 W/m² | - |
| 1777563937 | 17.78° C | 35% | 1024.3 hPa | 0 mm | - | 267 W/m² | - |
| 1777563637 | 17.22° C | 36% | 1024.3 hPa | 0 mm | - | 282 W/m² | - |
| 1777563337 | 17.22° C | 36% | 1024.3 hPa | 0 mm | - | 300 W/m² | - |
| 1777563037 | 17.22° C | 36% | 1024.3 hPa | 0 mm | - | 317 W/m² | - |
| 1777562737 | 17.78° C | 36% | 1024.2 hPa | 0 mm | - | 330 W/m² | - |
| 1777562137 | 17.78° C | 36% | 1024.3 hPa | 0 mm | - | 360 W/m² | - |
| 1777561837 | 17.78° C | 37% | 1024.3 hPa | 0 mm | - | 377 W/m² | - |
| 1777561537 | 17.22° C | 37% | 1024.3 hPa | 0 mm | - | 393 W/m² | - |
| 1777561237 | 17.78° C | 37% | 1024.2 hPa | 0 mm | - | 408 W/m² | - |
| 1777560937 | 17.78° C | 37% | 1024.2 hPa | 0 mm | - | 424 W/m² | - |
| 1777560338 | 17.78° C | 37% | 1024.2 hPa | 0 mm | - | 455 W/m² | - |
| 1777560038 | 18.33° C | 37% | 1024.2 hPa | 0 mm | - | 472 W/m² | - |
| 1777559738 | 17.78° C | 36% | 1024.2 hPa | 0 mm | - | 487 W/m² | - |
| 1777559438 | 17.78° C | 37% | 1024.2 hPa | 0 mm | - | 498 W/m² | - |
| 1777559138 | 18.33° C | 37% | 1024.1 hPa | 0 mm | - | 514 W/m² | - |
| 1777558838 | 18.89° C | 37% | 1024.2 hPa | 0 mm | - | 529 W/m² | - |
| 1777558538 | 17.78° C | 37% | 1024.1 hPa | 0 mm | - | 542 W/m² | - |
| 1777558238 | 17.22° C | 38% | 1024.2 hPa | 0 mm | - | 557 W/m² | - |
| 1777557938 | 17.78° C | 38% | 1024.3 hPa | 0 mm | - | 567 W/m² | - |
| 1777557638 | 18.33° C | 37% | 1024.3 hPa | 0 mm | - | 579 W/m² | - |
| 1777557338 | 17.78° C | 37% | 1024.3 hPa | 0 mm | - | 591 W/m² | - |
| 1777557038 | 17.78° C | 38% | 1024.4 hPa | 0 mm | - | 604 W/m² | - |
| 1777556739 | 17.78° C | 37% | 1024.4 hPa | 0 mm | - | 615 W/m² | - |
| 1777556439 | 17.78° C | 38% | 1024.5 hPa | 0 mm | - | 628 W/m² | - |
* Rain latest hour (hover to see other rain measurements)
** Current wind speed in m/s (hover to see current wind gust speed)